Regional Weather Roundup
Issued by NWS Goodland, KS

Home | Current Version | Previous Version | Graphics & Text | Print | Product List | Glossary Off
Versions: 1 2 3 4 5 6 7 8 9 10 11 12 13 14 15 16 17 18 19 20 21 22 23 24 25 26 27 28 29 30 31 32 33 34 35 36 37 38 39 40 41 42 43 44 45 46 47 48 49 50

000
ASUS43 KGLD 290259
RWRGLD

GOODLAND FORECAST AREA HOURLY WEATHER ROUNDUP
NATIONAL WEATHER SERVICE GOODLAND KS
900 PM MDT THU MAY 28 2015

...OFFICIAL OBSERVATIONS...

CITY           SKY/WX    TMP DP  RH WIND       PRES   REMARKS
GOODLAND KS    CLOUDY    57  51  80 E8        30.00S
HILL CITY KS   LGT RAIN  59  55  87 W3        29.95F
IMPERIAL NEB   CLOUDY    56  52  86 S7        29.93R
MCCOOK NEB     CLOUDY    57  55  93 SE7       29.93F
AKRON CO       LGT RAIN  57  52  83 NW24G31   30.07R
BURLINGTON CO  CLOUDY    57  50  77 E7        30.01S
LIMON CO       CLOUDY    50  48  93 CALM      30.07F
$$

...UNOFFICIAL OBSERVATIONS...

CITY           SKY/WX    TMP DP  RH WIND       PRES   REMARKS
COLBY KS       CLEAR     57  57 100 W6        30.00R
LENORA KS        N/A     60  32  34 MISG        N/A
NORTON KS      PTCLDY    61  48  63 NW5       29.98R
SHARON SPRINGS   N/A     57  54  89 MISG        N/A
KIT CARSON CO    N/A     57  52  83 MISG        N/A
$$



USA.gov is the U.S. government's official web portal to all federal, state and local government web resources and services.